SCP
0 0 0 0 0 0 0 0 0 0 0 0 0 0 0 0 0 0 0 0 0 0 0 0 0 0 0 0 0 0 0 0 0 0 0 0 0 1 1 1 1 1 1
0 0 0 0 0 0 0 0 0 0 0 0 0 0 0 0 0 0 0 0 0 0 0 0 0 0 0 0 0 0 0 0 0 0 0 0 0 0 1 1 1 1 1
0 0 0 0 0 0 0 0 0 0 0 0 0 0 0 0 0 0 0 0 0 0 0 0 0 0 0 0 0 0 0 0 0 0 0 0 0 0 1 1 1 1 1
0 0 0 0 0 0 0 0 0 0 0 0 0 0 0 0 0 0 0 0 0 0 0 0 0 0 0 0 0 0 0 0 0 0 0 0 0 0 0 1 1 1 1
0 0 0 0 0 0 0 0 0 0 0 0 0 0 0 0 0 0 0 0 0 0 0 0 0 0 0 0 0 0 0 0 0 0 0 0 0 0 0 1 1 1 1
0 0 0 0 0 0 0 0 0 0 0 0 0 0 0 0 0 0 0 0 0 0 0 0 0 0 0 0 0 0 0 0 0 0 0 0 0 0 0 0 1 1 1
0 0 0 0 0 0 0 0 0 0 0 0 0 0 0 0 -0 0 0 0 0 0 0 0 0 0 0 0 0 0 0 0 0 0 0 0 0 0 0 0 1 1 1
0 0 0 0 0 0 0 0 0 0 0 0 0 0 0 0 0 0 0 0 0 0 0 0 0 0 0 0 0 0 0 0 0 0 0 0 0 0 0 0 1 1 1
0 0 0 0 0 0 0 0 0 0 0 0 0 0 0 0 0 0 -0 0 0 0 0 0 0 0 0 0 0 0 0 0 0 0 0 0 0 0 0 0 1 1 1
0 0 0 0 0 0 0 0 0 0 0 0 0 0 0 0 0 0 0 0 0 0 0 0 0 0 0 0 0 0 0 0 0 0 0 0 0 0 0 0 0 1 1
0 0 0 0 0 0 0 0 0 0 0 0 0 0 0 0 0 0 0 0 0 0 0 0 0 0 0 0 0 0 0 0 0 0 0 0 0 0 0 0 0 1 1
0 0 0 0 0 0 0 0 0 0 0 0 0 0 0 0 0 0 0 0 0 0 0 0 0 0 0 0 0 0 0 0 0 0 0 0 0 0 0 0 0 1 1
0 0 0 0 0 0 0 0 0 0 0 0 0 0 0 0 0 0 0 0 0 0 0 0 0 0 0 0 0 0 0 0 0 0 0 0 0 0 0 0 0 0 0
0 0 0 0 0 0 0 0 0 0 0 0 0 0 0 0 0 0 0 0 0 0 0 0 0 0 0 0 0 0 0 0 0 0 0 0 0 0 0 0 0 0 0
0 0 0 0 0 0 0 0 0 0 0 0 0 0 0 0 0 0 0 0 0 0 0 0 0 0 0 0 0 0 0 0 0 0 0 0 0 0 0 0 0 0 0
0 0 0 0 0 0 0 0 0 0 0 0 0 -0 0 0 0 0 0 0 -0 0 0 0 0 0 0 0 0 0 0 0 0 0 0 0 0 0 0 0 0 0 0
0 0 0 0 0 0 0 0 0 0 0 0 0 0 0 0 0 0 0 0 -0 0 0 0 0 0 0 0 0 0 0 0 0 0 0 0 0 0 0 0 0 0 0
0 0 0 0 0 0 0 0 0 0 0 0 0 0 0 0 0 0 0 0 0 0 0 0 0 0 0 0 0 0 0 0 0 0 0 0 0 0 0 0 0 0 0
0 0 0 0 0 0 0 0 0 0 0 0 0 0 0 0 0 0 0 0 -0 -0 -0 0 0 0 0 0 0 0 0 0 0 0 0 0 0 0 0 0 0 0 0
0 0 0 0 0 0 0 0 0 0 0 0 0 0 0 0 0 0 0 0 -0 -0 -0 0 0 0 0 0 0 0 0 0 0 0 0 0 0 0 0 0 0 0 0
0 0 0 0 0 0 0 0 0 0 0 0 0 0 0 0 0 0 0 -0 -0 -0 -0 0 0 0 0 0 0 0 0 0 0 0 0 0 0 0 0 0 0 0 0
0 0 0 0 0 0 0 0 0 0 0 0 0 0 0 0 0 0 0 -0 -0 -0 0 0 0 0 0 0 0 0 0 0 0 0 0 0 0 0 0 0 0 0 0
0 0 0 0 0 0 0 0 0 0 0 0 0 0 0 0 0 0 0 -0 -0 -0 0 0 0 0 0 0 0 0 0 0 0 0 0 0 0 0 0 0 0 0 0
0 0 0 0 0 0 0 0 0 0 0 0 0 0 0 0 0 0 0 0 0 0 0 0 0 0 0 0 0 0 0 0 0 0 0 0 0 0 0 0 0 0 0
0 0 0 0 0 0 0 0 0 0 0 0 0 0 0 0 0 0 0 0 0 0 0 0 0 0 0 0 0 0 0 0 0 0 0 0 0 0 0 0 0 0 0
0 0 0 0 0 0 0 0 0 0 0 0 0 0 0 0 0 0 0 0 0 0 0 0 0 0 0 0 0 0 0 0 0 0 0 0 0 0 0 0 0 0 0
Wind_Speed
4 5 5 5 6 5 6 7 7 9 9 10 10 13 13 13 13 13 11 26 31 32 32 31 31 30 28 27 26 25 23 22 22 21 21 20 19 18 18 20 24 24 24
4 5 5 5 5 5 5 6 8 8 8 8 9 11 13 13 12 13 13 17 28 32 33 32 31 30 29 27 26 24 23 22 21 21 21 20 20 19 18 18 22 25 25
5 5 5 5 5 5 7 6 8 7 8 9 10 11 11 11 13 14 15 14 15 25 32 32 32 30 28 27 25 24 23 22 22 21 21 21 20 19 18 18 20 25 26
5 4 4 5 6 5 5 6 6 6 7 7 8 9 10 10 13 14 15 16 14 15 21 31 32 30 28 26 24 23 23 22 22 21 21 21 21 20 19 18 19 24 27
4 4 4 5 6 5 5 8 7 6 8 8 9 9 8 9 11 16 17 18 17 17 15 22 30 28 27 24 23 23 23 22 22 22 21 21 21 20 20 19 18 22 27
4 4 4 5 6 5 5 6 8 8 7 8 12 12 9 10 10 12 15 14 16 19 16 15 13 15 22 21 20 21 22 22 22 22 22 21 22 21 20 20 18 19 25
4 5 5 5 5 5 7 8 7 9 8 7 9 11 10 9 11 11 10 11 16 18 17 15 9 6 6 15 18 20 21 21 22 22 21 21 22 22 21 20 19 19 23
5 6 5 5 5 6 7 7 7 7 9 7 8 12 12 11 8 11 10 13 14 14 16 17 13 10 7 4 11 20 21 22 22 22 22 22 22 22 22 20 20 19 21
5 5 6 5 6 6 6 7 7 9 10 9 5 6 10 13 14 10 10 11 11 12 13 13 14 11 10 6 6 14 21 22 22 21 21 21 22 22 22 21 20 20 20
5 6 6 6 6 6 7 8 8 7 10 11 9 6 7 10 12 14 9 7 11 13 12 13 13 11 10 7 11 18 21 22 22 21 21 21 21 22 22 21 21 20 19
5 6 6 5 6 6 7 8 8 8 8 9 9 10 10 9 9 10 14 13 11 9 10 12 11 11 11 9 8 13 21 21 21 20 20 20 21 21 21 21 19 19 18
4 6 6 5 6 6 7 7 8 9 9 9 8 8 10 10 10 9 11 13 13 12 11 11 11 11 10 10 13 20 20 19 19 19 19 20 21 21 20 19 19 17 17
4 5 7 6 6 7 7 7 7 9 9 9 8 8 8 9 10 11 11 12 13 12 10 10 9 9 10 8 8 17 16 17 17 19 20 20 20 20 19 19 18 18 16
5 6 6 7 7 7 8 7 7 8 8 8 10 10 8 8 8 10 10 11 12 11 9 10 8 8 8 8 11 17 9 16 18 20 21 20 20 19 19 19 17 17 16
6 7 7 8 7 7 7 7 6 8 9 8 8 9 8 8 8 8 9 9 9 12 12 9 7 9 9 8 14 9 6 15 20 22 22 21 20 20 20 19 17 16 14
6 7 7 7 7 7 7 7 7 8 9 8 7 9 8 8 8 8 8 9 8 9 11 8 8 10 11 12 17 12 9 21 22 23 23 23 22 21 21 20 17 16 14
6 7 8 8 7 7 7 7 8 9 10 9 9 9 10 10 8 8 8 9 8 8 11 10 8 9 11 11 11 10 10 9 11 22 24 24 23 22 21 20 17 16 13
6 7 7 7 8 9 8 8 10 10 10 11 10 10 11 10 10 9 8 10 9 9 9 13 10 9 10 11 11 11 11 11 10 19 23 24 23 22 21 20 18 16 12
7 7 7 8 8 8 9 10 10 11 12 12 11 10 10 10 10 10 11 11 9 9 7 9 11 9 8 9 11 11 12 9 11 14 20 22 23 23 21 20 19 16 12
7 7 7 8 8 9 10 12 12 12 13 12 11 11 10 10 11 11 11 11 10 8 7 8 9 9 8 8 8 9 10 8 9 11 14 15 18 21 22 21 20 17 13
8 7 8 8 8 9 10 13 12 11 11 11 11 9 10 14 18 15 12 11 9 7 7 8 9 8 7 7 8 7 10 11 11 8 7 9 8 8 10 17 18 16 14
7 8 7 8 10 11 21 27 19 9 8 9 8 8 9 11 16 21 25 22 18 12 10 8 8 8 9 8 8 9 9 10 8 5 6 8 7 7 8 8 13 15 14
8 8 7 8 11 15 25 26 25 12 8 7 7 7 8 9 14 10 15 17 16 20 19 12 9 9 10 9 9 11 9 10 11 9 8 8 6 7 7 9 15 15 14
7 7 7 9 10 14 24 25 24 9 7 6 7 7 7 7 10 14 8 8 8 10 14 10 9 10 10 9 10 10 10 11 12 11 9 7 6 6 6 6 13 15 13
7 6 7 8 9 12 22 24 21 5 5 6 6 7 8 6 17 22 11 10 11 9 13 18 19 17 17 16 12 6 6 7 8 6 4 5 5 4 4 5 8 14 13
6 6 6 7 8 9 18 23 21 4 5 6 5 6 12 15 20 21 9 9 12 10 9 11 12 13 10 11 14 6 5 6 6 6 4 4 4 3 3 3 4 6 7
Wind_Direction
337 333 328 325 323 324 329 330 321 319 319 317 315 317 317 314 309 305 304 303 301 298 295 292 289 287 284 281 281 280 280 280 281 283 286 285 282 279 267 238 215 205 201
339 331 326 321 320 325 326 319 317 317 313 311 313 316 313 309 306 306 305 305 302 297 293 290 287 285 282 278 276 276 276 277 279 282 285 288 283 279 274 254 224 208 202
336 332 319 317 318 319 318 314 310 307 311 316 315 311 307 305 304 303 302 298 296 294 291 288 285 282 278 273 271 273 274 276 278 280 283 287 286 278 275 265 235 214 205
333 328 316 312 311 315 313 309 304 314 312 308 306 304 303 301 301 303 301 298 294 289 287 285 283 281 278 273 270 271 273 275 276 278 279 284 286 282 273 269 249 221 208
328 324 311 302 312 312 306 310 320 310 306 306 303 299 301 304 302 301 300 298 294 286 277 276 275 276 275 272 271 271 273 273 274 274 277 280 284 284 276 268 259 232 213
321 317 298 303 309 305 304 306 306 303 301 302 306 306 298 295 298 296 297 304 308 302 292 278 271 274 276 275 273 271 271 271 271 273 274 276 280 284 281 269 262 244 221
311 301 298 299 300 300 299 301 304 305 304 300 305 305 298 290 291 294 297 309 306 307 307 302 293 286 284 283 284 283 277 273 271 271 272 273 277 279 281 274 263 252 229
297 301 297 295 295 297 298 300 303 302 304 307 306 309 307 305 294 301 302 298 301 306 308 309 310 303 293 280 278 280 279 277 275 273 271 271 274 276 277 277 267 256 238
292 292 291 290 292 294 295 298 298 302 306 304 289 295 304 305 309 297 291 293 297 299 298 297 295 289 285 278 273 276 276 275 273 272 272 272 272 273 274 276 271 260 245
299 297 293 293 294 293 293 297 308 300 301 305 303 282 274 286 298 305 302 291 296 298 302 304 305 301 291 281 274 273 271 270 269 270 270 271 272 272 271 273 272 262 251
296 294 293 298 296 294 293 297 303 300 299 298 305 304 298 291 281 287 299 304 302 297 299 301 298 294 289 278 268 267 268 266 265 268 270 273 274 275 274 273 277 268 257
291 294 300 300 297 294 293 298 301 301 300 298 302 303 302 299 295 289 289 295 298 298 296 293 290 286 281 272 267 271 270 269 268 270 273 275 278 279 282 281 283 282 267
293 293 304 295 293 291 294 300 304 302 300 302 305 305 304 299 296 290 287 289 291 292 292 289 286 288 291 284 270 274 276 277 273 272 273 273 275 278 283 285 286 288 280
284 287 294 292 292 296 304 303 303 301 303 303 309 308 306 305 302 296 292 292 293 294 294 291 297 297 305 308 300 295 287 284 279 275 273 271 272 273 277 281 283 288 284
288 295 295 292 294 296 298 303 298 301 299 297 300 301 303 303 302 303 301 297 296 302 304 304 305 305 308 303 300 298 283 281 278 273 271 269 269 270 272 275 278 281 284
290 293 292 294 295 296 297 298 296 295 297 295 296 299 302 303 304 302 303 303 297 295 298 301 302 302 306 306 302 303 299 293 284 278 272 268 266 265 267 267 271 273 278
290 292 295 296 298 298 297 294 291 293 292 293 294 298 298 301 301 304 304 303 302 299 297 301 298 299 299 299 299 295 291 284 278 275 270 266 261 258 259 260 262 265 269
290 291 294 299 300 301 293 288 287 290 285 284 285 289 293 300 300 301 299 299 297 294 295 304 304 301 298 298 297 296 294 284 274 271 267 263 259 254 252 253 254 256 260
291 293 296 296 294 292 290 285 279 277 276 274 274 278 283 290 294 294 293 293 293 296 294 296 301 300 299 301 307 302 297 287 282 274 268 262 255 250 248 247 247 246 247
290 289 288 289 292 292 288 282 275 274 272 268 267 269 275 280 284 286 292 293 295 297 296 296 297 299 300 305 310 315 312 304 293 284 271 263 252 245 242 241 241 238 236
287 283 285 290 292 291 285 281 274 276 272 268 267 265 272 291 304 309 312 310 310 307 304 298 296 299 302 313 312 312 310 309 298 273 272 264 251 236 228 234 235 231 227
281 282 282 286 291 293 299 306 314 305 292 282 276 269 276 292 304 318 318 320 328 322 309 300 297 296 297 298 302 303 305 307 303 312 322 286 256 235 221 217 218 216 216
283 282 281 282 286 290 304 312 322 331 311 300 286 280 292 303 316 299 307 325 325 320 316 309 299 290 288 287 290 292 291 291 284 292 303 281 258 240 222 217 209 206 208
277 278 281 282 285 295 311 319 328 336 309 301 294 288 286 289 303 312 325 322 305 302 306 305 287 281 279 274 267 274 283 288 283 268 247 259 255 238 222 207 203 200 199
282 282 282 286 291 303 316 323 336 320 308 307 305 311 318 305 313 331 341 323 314 309 321 323 320 314 309 305 297 284 282 288 290 285 255 247 257 238 210 195 196 195 194
283 288 294 298 301 304 317 329 339 328 314 315 314 319 328 324 328 338 339 323 320 327 330 323 320 315 310 302 304 290 271 271 276 285 302 309 278 250 194 180 176 181 186